ECMWFNIL_500_rhum_132.txt.gz
RH
13 14 16 16 16 17 16 16 17 16 18 20 18 16 17 17 18 21 22 22 22 24 26 24 22 22 23 24 26 25 25 27 25 22 22 20 19 18 16 18 17 16
12 13 14 16 16 16 15 16 18 17 17 19 18 18 21 22 20 20 20 21 20 19 19 19 19 19 20 20 21 20 20 22 21 18 17 16 15 14 14 15 12 11
10 11 12 13 13 14 14 14 16 17 19 20 18 16 17 18 20 21 21 20 19 18 17 17 16 17 17 18 18 18 17 18 18 16 15 14 14 12 11 11 10 8
8 9 10 11 11 12 12 12 12 13 15 19 22 21 16 13 13 15 17 17 17 20 20 16 15 15 16 17 17 17 17 16 16 16 15 13 12 11 10 10 11 12
7 7 8 9 9 9 9 9 10 10 10 12 17 20 18 16 14 12 14 14 14 19 22 21 19 17 16 18 18 18 17 14 14 16 18 16 14 14 13 13 13 14
7 7 7 7 7 8 8 9 9 10 11 11 12 14 16 20 20 16 17 17 14 15 18 21 21 18 17 19 19 20 19 17 17 18 18 18 18 18 18 16 15 14
8 8 7 8 9 9 10 11 11 12 12 14 15 14 15 18 19 18 20 21 21 21 19 20 23 25 29 29 28 26 24 22 21 21 22 22 22 22 20 18 17 17
12 12 11 10 11 12 12 14 15 16 16 16 18 19 18 17 17 20 20 20 21 21 20 23 27 30 35 36 33 27 24 23 23 23 25 28 32 34 30 28 27 25
13 14 14 14 13 14 15 15 16 19 21 20 21 22 19 16 17 20 21 21 20 19 19 22 22 23 27 28 27 25 22 23 23 23 25 29 34 38 38 37 36 31
14 14 15 15 15 16 16 17 18 19 23 25 24 22 21 19 17 17 18 18 20 25 32 33 29 29 27 21 20 23 24 25 26 25 26 28 29 33 37 38 34 30
18 16 15 15 15 16 17 18 21 21 25 30 29 25 25 25 23 26 31 35 41 53 63 65 64 64 56 39 29 27 25 23 24 24 24 27 28 29 32 33 33 36
25 22 19 16 14 15 17 19 21 22 25 28 28 27 26 27 35 50 63 69 74 76 75 76 80 81 74 64 58 56 47 31 23 22 22 24 26 25 26 27 30 37
28 28 25 21 17 15 17 19 20 21 22 24 25 26 26 29 40 56 70 79 79 71 67 75 81 76 70 67 68 73 66 42 27 25 22 20 23 24 26 27 29 32
23 25 26 24 20 17 16 17 18 18 20 21 22 25 27 29 36 47 59 68 64 53 54 68 77 76 72 68 64 64 58 39 27 29 28 23 22 22 22 24 25 28
17 17 19 19 18 18 16 16 16 16 17 17 18 21 23 25 35 47 55 56 49 42 45 55 68 78 76 67 61 58 49 32 21 26 33 33 33 33 32 30 27 27
14 13 13 13 14 15 14 14 15 14 15 14 14 17 19 25 37 45 48 47 42 38 41 47 57 73 78 72 64 58 50 36 22 19 23 26 31 36 39 40 40 40
12 12 12 12 12 13 13 13 14 14 14 13 12 13 17 22 26 26 30 37 37 37 40 39 36 43 57 66 67 61 54 48 41 33 24 19 21 24 26 28 35 41
11 12 13 13 13 13 12 12 12 12 12 14 15 14 16 20 20 18 22 30 36 40 41 35 28 27 35 48 56 55 50 49 53 52 39 25 23 22 19 17 21 29
10 12 12 13 13 12 13 13 13 13 16 22 24 22 25 31 29 24 23 27 35 41 38 33 35 40 43 47 50 49 47 48 55 61 59 52 51 46 35 25 21 21
9 13 13 13 13 11 12 17 17 14 16 20 25 32 40 40 34 27 24 25 31 36 35 34 38 43 48 53 54 51 49 47 49 57 67 73 74 72 64 52 42 35
16 15 17 17 15 15 20 25 23 17 14 14 20 31 37 33 28 28 29 30 29 28 29 30 32 33 37 41 40 37 33 32 35 47 63 71 70 71 74 73 69 68
45 38 35 25 18 25 40 43 32 22 18 15 17 23 26 27 29 32 38 43 43 39 35 31 28 27 28 28 27 26 24 24 32 46 61 67 68 71 77 81 84 87
74 71 68 53 36 41 58 60 50 41 32 24 22 22 22 25 27 33 46 56 60 60 55 45 34 28 25 23 22 23 25 30 41 54 61 65 70 76 82 88 92 91
82 86 91 83 66 56 54 53 56 60 54 47 46 46 46 48 42 39 49 59 67 74 73 65 57 50 46 42 34 30 34 42 53 65 71 73 79 87 92 95 95 92
82 84 89 91 84 70 55 43 46 56 62 70 76 74 74 76 65 51 53 61 69 76 76 73 73 72 71 66 56 50 53 59 66 76 84 87 91 97 99 99 98 96
87 81 81 84 86 85 75 59 50 53 64 80 90 84 78 74 65 59 63 65 64 67 69 69 72 79 83 79 74 73 74 76 81 88 94 95 96 99 99 99 100 100

ECMWFNIL_500_rhum_138.txt.gz
RH
14 15 16 18 19 19 19 20 20 20 21 21 22 21 20 21 21 21 22 22 22 23 23 23 23 22 22 23 23 23 24 25 24 24 24 23 21 18 17 15 14 13
15 15 17 19 19 18 16 16 17 17 18 19 19 19 18 19 20 21 21 22 23 23 24 26 27 26 25 25 25 24 24 25 23 21 19 17 15 12 12 11 11 10
15 16 16 16 16 16 15 15 16 15 15 15 16 17 18 19 20 21 21 21 23 25 25 26 25 24 23 23 24 23 21 21 19 16 14 12 12 11 10 10 10 11
15 16 16 16 15 15 15 16 17 17 14 13 14 16 17 19 21 21 21 21 22 24 23 21 20 20 20 19 19 19 18 18 17 16 15 14 12 11 10 10 10 12
15 15 16 17 16 16 16 16 18 19 17 16 16 17 19 19 19 20 19 19 19 19 18 19 19 18 18 18 18 17 16 16 17 16 16 16 15 14 13 14 15 15
14 15 16 17 17 17 16 16 17 18 18 18 17 19 21 21 20 19 19 20 20 20 19 18 16 15 15 15 14 15 14 15 16 14 15 16 17 17 17 18 19 19
12 14 15 16 17 16 16 16 17 17 18 19 17 17 18 17 18 19 20 21 20 19 19 18 15 14 13 12 16 20 19 16 16 17 18 19 21 22 24 25 27 28
9 11 13 14 15 15 15 15 16 16 17 18 18 18 17 15 14 14 15 16 15 14 16 17 17 16 14 16 25 31 32 30 27 24 23 23 24 25 27 33 38 40
8 9 10 12 12 13 13 13 13 13 13 13 14 17 19 18 16 14 13 12 13 14 14 15 16 16 18 26 33 39 48 51 43 31 27 28 29 26 26 31 35 36
7 8 8 10 10 10 11 11 11 10 10 10 10 11 15 16 16 17 15 14 20 23 21 23 24 23 28 37 43 47 55 58 50 36 28 28 30 28 26 27 27 28
7 7 7 8 8 9 9 9 9 9 9 9 9 11 14 13 14 16 14 20 32 35 32 35 37 37 42 48 49 50 53 55 52 42 33 31 33 33 30 26 23 23
8 7 7 7 7 7 8 8 8 9 9 10 11 13 15 15 16 16 14 21 33 37 41 49 51 52 58 60 59 60 60 61 61 55 51 51 52 51 46 38 29 23
12 9 8 8 7 7 7 8 9 10 11 13 14 16 18 19 19 18 17 19 24 32 45 56 59 61 66 68 68 68 68 69 70 69 67 67 68 68 62 48 36 29
15 13 11 9 9 9 9 9 10 11 12 14 15 19 22 23 23 22 22 22 26 34 45 54 59 66 70 72 70 68 68 70 74 78 80 77 75 74 66 53 46 40
12 15 14 13 11 11 12 12 13 13 14 14 16 19 22 27 29 28 25 25 28 33 39 45 53 61 67 71 70 68 65 63 68 76 81 77 74 70 64 62 65 59
9 11 13 15 15 13 13 13 13 14 14 15 17 19 21 25 29 29 27 24 25 25 25 29 37 45 52 61 67 67 58 49 47 54 63 72 76 74 71 73 79 77
14 10 10 12 14 15 15 15 14 14 14 14 16 17 20 22 23 24 23 22 21 21 19 20 25 30 37 50 59 59 50 41 36 38 48 63 71 72 75 79 82 83
26 16 10 10 11 12 14 16 17 16 15 15 15 15 17 19 21 19 18 18 18 17 16 16 18 19 26 38 46 44 40 36 33 33 38 45 53 63 73 81 82 80
31 24 16 12 11 10 10 12 15 16 18 18 17 17 16 16 16 16 14 14 14 14 14 14 14 16 21 27 27 24 25 26 28 32 34 36 44 57 69 80 83 80
31 29 25 18 13 11 10 10 11 12 15 16 15 15 15 15 15 15 14 14 14 14 14 13 13 14 17 19 17 15 17 20 23 29 31 32 36 44 54 63 68 73
39 32 31 27 18 12 9 8 10 11 10 11 13 13 12 13 14 14 14 14 14 13 13 13 13 15 15 17 20 22 22 20 22 24 25 26 27 30 36 43 54 67
61 45 39 34 24 20 19 9 5 9 9 7 10 12 12 13 14 15 16 15 14 13 13 14 15 16 19 24 29 31 28 24 23 23 25 29 32 32 34 37 43 48
86 70 61 53 43 46 51 31 8 5 8 9 10 11 11 12 12 14 14 12 12 12 16 26 33 29 25 29 34 34 31 28 27 28 36 45 52 57 58 50 41 40
96 90 85 81 73 75 78 62 35 17 8 6 9 11 11 12 14 20 25 23 20 19 22 33 45 44 37 39 44 43 39 37 35 35 43 53 60 70 77 71 61 62
94 91 90 92 92 90 89 83 71 56 37 21 12 9 10 11 13 22 38 49 53 53 48 41 40 43 47 50 48 45 41 39 37 37 42 49 54 65 74 76 76 79
93 89 86 87 92 94 93 90 87 85 77 61 43 32 30 28 21 18 25 41 58 66 62 50 37 35 43 47 42 39 39 40 41 45 50 53 57 67 76 78 81 87

ECMWFNIL_500_rhum_141.txt.gz
RH
14 14 14 16 17 18 19 19 18 18 19 21 20 19 21 23 23 23 24 24 24 24 24 24 24 24 24 24 24 24 25 26 26 26 26 25 24 22 19 16 15 14
14 14 14 15 15 17 18 19 19 20 21 22 21 21 21 23 22 21 22 23 22 23 23 24 24 23 23 24 25 26 26 27 26 25 24 22 20 17 15 14 13 12
14 14 15 16 17 18 18 19 20 20 21 21 21 22 22 21 20 20 21 22 22 23 24 25 26 27 28 29 29 29 27 26 24 22 19 16 15 15 14 13 11 10
14 14 14 16 18 19 18 18 18 18 18 20 21 21 20 19 19 20 21 22 23 24 25 27 29 29 29 27 26 26 23 21 20 18 16 14 13 12 11 11 11 11
14 14 14 15 16 17 17 16 15 16 16 17 18 19 18 18 19 21 22 23 24 25 27 26 25 23 22 20 19 19 17 16 16 15 15 16 15 14 13 12 14 15
14 14 14 15 15 15 15 15 15 15 14 14 15 16 17 18 20 22 23 23 23 23 23 21 19 18 16 16 16 16 15 14 15 15 14 15 16 17 17 17 18 19
12 14 14 15 15 15 15 14 16 17 16 15 14 15 17 19 20 21 21 22 20 19 18 16 16 15 14 15 15 15 16 15 16 16 15 17 19 20 22 22 22 24
10 12 14 15 15 16 16 14 15 17 18 18 16 17 19 21 21 21 20 19 18 17 16 15 15 14 14 14 13 15 20 21 18 18 20 22 23 23 25 25 27 30
9 11 12 14 16 16 16 15 15 15 17 18 18 17 18 19 19 18 18 18 17 16 15 15 16 17 17 16 14 20 30 33 30 30 29 25 25 26 27 25 24 27
7 9 10 12 15 16 16 15 15 15 16 17 18 18 18 19 17 15 14 14 15 14 14 14 16 18 18 17 18 26 36 42 48 49 40 30 26 27 27 29 31 32
6 7 8 10 12 14 15 14 14 14 14 15 16 16 17 18 18 15 12 12 12 12 12 14 14 16 18 18 24 35 42 49 56 57 49 37 27 24 34 51 61 62
7 6 7 8 9 10 12 13 13 13 12 13 12 12 12 13 15 15 13 13 13 13 16 21 21 22 25 27 35 43 44 48 52 53 53 48 39 41 57 73 79 78
8 6 6 7 7 9 9 10 11 11 11 11 10 9 9 10 11 12 12 13 14 14 21 30 33 32 33 40 53 60 55 54 56 57 60 60 59 66 75 81 82 80
13 9 7 6 6 7 8 8 9 9 9 9 8 9 9 10 11 11 10 12 13 13 19 30 36 37 43 57 70 72 65 64 65 65 67 67 73 82 84 82 82 79
17 13 10 8 6 7 7 7 8 7 8 8 8 9 10 11 12 12 13 14 15 14 16 21 27 35 49 65 74 74 76 79 76 73 72 69 71 76 75 74 77 79
14 15 15 12 9 8 7 7 7 7 7 8 8 10 11 13 14 14 15 16 16 16 15 17 23 33 46 57 63 70 78 80 77 77 76 66 56 54 57 64 74 79
12 12 14 16 14 13 11 9 8 8 8 9 9 11 12 13 14 14 15 15 16 17 17 19 22 29 39 45 47 53 61 64 71 77 72 59 47 41 43 51 57 64
16 12 11 13 15 16 15 14 12 11 11 11 11 12 13 14 14 14 15 17 19 19 19 21 21 23 30 34 33 39 48 55 66 73 74 72 59 39 33 36 39 46
21 17 12 11 11 12 15 16 16 15 14 13 13 13 13 14 15 16 17 18 20 20 19 20 21 20 20 20 19 27 43 59 71 74 75 70 50 28 25 31 33 34
36 24 17 13 11 10 10 11 14 17 18 17 15 13 13 14 14 16 17 18 18 19 18 17 17 16 14 14 13 18 33 50 56 51 43 35 23 17 21 27 28 28
61 44 32 23 16 11 10 10 10 12 15 17 17 15 14 14 14 14 15 16 16 15 15 14 15 13 11 11 10 10 15 21 22 20 19 18 19 20 21 22 23 24
78 69 60 50 36 22 15 14 13 12 11 12 14 16 16 15 16 15 14 14 14 14 14 13 13 13 11 10 10 10 10 11 12 15 19 25 29 30 26 23 25 30
82 79 78 74 64 47 33 24 18 15 14 12 11 12 14 15 16 16 15 15 14 14 14 13 13 12 11 10 9 9 11 15 18 19 22 32 40 42 37 32 35 43
80 79 79 81 78 69 57 45 30 18 14 13 12 11 10 10 12 14 14 14 14 13 12 13 12 11 11 11 10 10 13 21 30 32 31 34 41 48 50 47 47 52
80 79 78 81 83 77 72 68 55 36 22 16 13 15 14 10 8 11 12 14 15 14 13 14 14 12 11 12 14 16 19 23 28 31 34 38 45 50 50 46 44 46
81 82 81 84 88 84 80 81 78 65 50 34 26 30 33 23 11 9 14 19 18 14 12 12 13 13 18 28 37 42 43 39 32 26 26 34 42 43 42 43 45 48

ECMWFNIL_500_rhum_144.txt.gz
RH
14 15 16 16 17 18 18 17 16 17 16 15 16 17 18 20 21 23 24 24 25 25 24 24 25 26 27 26 24 23 24 25 25 25 26 26 26 25 25 25 23 21
15 15 15 15 16 17 18 18 17 17 17 17 18 18 18 20 22 22 24 24 23 24 23 23 23 23 24 23 22 22 23 24 24 24 24 23 23 20 18 18 18 15
14 14 14 14 14 16 17 17 17 18 18 18 19 21 20 19 21 22 23 23 22 22 22 22 22 22 21 21 21 22 22 23 24 23 22 20 18 15 12 12 11 10
14 14 14 14 14 15 16 16 18 18 19 20 21 22 21 20 21 22 21 21 21 21 21 22 22 21 21 20 21 22 22 22 21 20 18 15 12 11 11 10 9 9
12 13 13 14 15 16 17 17 18 19 19 21 21 21 21 21 21 21 20 20 20 21 22 22 22 22 22 22 22 22 22 20 19 17 14 14 15 11 9 10 10 11
11 13 13 14 15 17 18 17 17 18 18 19 20 20 20 20 20 19 19 20 20 21 21 22 23 23 22 22 21 20 19 16 15 15 14 16 18 14 11 14 15 16
10 12 12 13 15 15 15 15 15 15 16 16 17 18 19 18 18 18 19 20 20 20 21 22 22 21 20 19 18 17 16 14 14 17 17 15 15 14 15 20 20 23
8 11 12 12 14 14 14 14 14 14 14 15 15 15 16 17 17 19 20 20 20 19 20 20 19 19 19 17 18 18 16 15 17 17 15 15 16 18 20 23 25 31
7 8 11 13 13 14 14 13 14 15 15 15 14 14 14 15 17 18 19 19 18 17 17 16 15 18 21 20 20 19 16 18 23 23 19 17 19 21 25 29 32 37
8 7 8 11 13 14 14 14 14 14 16 17 16 14 14 15 17 17 17 16 16 15 15 14 14 17 20 19 17 17 19 25 35 42 44 43 42 36 29 32 39 42
8 8 7 8 11 13 14 15 15 14 14 16 17 16 15 15 16 17 16 15 14 15 15 14 15 16 18 19 17 18 25 34 41 50 58 65 69 57 36 31 38 44
10 7 8 8 8 10 13 14 15 15 15 15 16 16 16 15 15 15 14 13 13 14 14 14 14 14 15 16 16 20 29 39 45 53 60 66 68 59 43 37 43 51
12 8 7 8 7 8 10 12 13 14 14 15 14 15 17 17 16 15 13 12 11 11 12 12 12 12 13 14 16 28 43 49 51 55 59 61 61 57 55 55 57 61
10 10 9 7 7 8 8 9 11 12 13 13 13 14 15 15 15 14 13 12 11 10 10 11 11 12 16 19 23 37 52 59 61 63 65 67 67 66 66 66 65 69
17 10 9 9 7 7 7 8 8 9 10 11 11 12 12 12 11 11 11 11 11 11 11 12 13 13 19 27 32 37 47 58 67 70 71 73 73 71 70 68 65 65
36 20 11 10 9 7 6 7 7 8 8 9 9 10 10 9 9 9 8 9 9 10 11 12 13 14 17 24 31 35 43 56 67 71 73 76 76 74 72 69 60 49
43 36 24 15 11 10 8 6 6 7 7 7 8 8 8 8 8 8 8 8 9 10 11 11 13 15 15 17 23 29 38 51 61 66 68 70 70 71 72 68 58 44
37 35 34 26 17 13 12 9 7 6 6 7 7 7 7 8 8 8 8 9 10 11 12 13 14 17 18 17 20 27 36 45 50 51 52 53 56 63 70 70 64 56
46 32 32 33 25 17 15 13 10 8 7 7 7 7 7 7 7 8 9 10 11 13 13 13 16 19 21 21 22 25 28 32 37 40 40 42 46 56 68 74 73 63
70 46 32 31 29 22 17 15 14 13 11 9 8 8 8 8 8 9 9 10 11 12 12 13 16 20 22 23 24 22 21 23 27 28 26 28 36 50 65 71 63 44
87 70 48 33 29 26 21 18 16 14 14 13 12 11 10 9 10 10 11 12 12 12 13 13 16 20 21 23 23 21 20 20 19 17 16 17 22 31 41 40 31 21
86 82 67 49 37 29 23 22 20 17 16 15 14 14 13 12 12 12 11 12 12 13 13 14 16 18 19 20 20 19 19 17 15 15 14 14 13 15 16 15 12 15
80 82 76 65 54 44 33 27 24 22 20 17 13 13 13 14 14 14 14 13 13 12 12 13 15 15 16 17 17 16 16 15 14 14 12 13 16 13 13 20 24 24
80 84 81 74 67 62 54 45 35 29 26 24 19 14 13 12 13 14 15 14 14 13 12 12 13 13 14 15 14 14 15 13 14 14 13 18 29 36 43 55 53 37
76 84 87 83 74 68 66 63 57 48 43 39 32 24 19 16 14 14 14 13 13 13 13 13 13 14 14 15 16 16 15 14 15 14 11 16 30 48 63 70 61 45
70 76 82 84 78 73 71 69 68 65 61 57 50 39 32 29 24 18 15 14 12 12 12 12 13 13 13 14 15 14 13 13 13 15 27 39 38 33 36 38 35 37